Meadville, PA

8:24 PM EDT on June 28, 2017 (GMT -0400)
Port Meadville

Weather History for KGKJ - December, 2012

Change the Weather History Date:

Saturday, December 1, 2012

  Actual Average Record
Temperature  
Mean Temperature 46 °F -  
Max Temperature 54 °F 42 °F 68 °F (1962)
Min Temperature 37 °F 27 °F -2 °F (1976)
Degree Days  
Heating Degree Days 20    
Moisture  
Dew Point 34 °F    
Average Humidity 61    
Maximum Humidity 73    
Minimum Humidity 53    
Precipitation  
Precipitation 0.00 in - - ()
Sea Level Pressure  
Sea Level Pressure 30.24 in    
Wind  
Wind Speed 3 mph (South)    
Max Wind Speed 12 mph    
Max Gust Speed 17 mph    
Visibility 10 miles    
Events      
Averages and records for this station are not official NWS values.
T = Trace of Precipitation, MM = Missing Value Source: NWS Daily Summary

Daily Weather History Graph

Daily Weather History Graph

Search for Another Location

Airport or City:

Trip Planner

Search our weather history database for the weather conditions in past years. The results will help you decide how hot, cold, wet, or windy it might be!

Date:

Astronomy

Dec. 01, 2012 Rise Set
Actual Time 7:28 AM EST 4:51 PM EST
Civil Twilight 6:57 AM EST 5:22 PM EST
Nautical Twilight 6:23 AM EST 5:56 PM EST
Astronomical Twilight 5:49 AM EST 6:30 PM EST
Moon 7:40 PM EST (12/1) 9:40 AM EST (12/1)
Length of Visible Light 10h 24m
Length of Day
9h 22m
Waning Gibbous, 92% of the Moon is Illuminated
Dec 1
Waning Gibbous
Dec 6
Last Quarter
Dec 13
New
Dec 20
First Quarter
Dec 28
Full

Hourly Weather History & Observations

Time (EST) Temp. Windchill Dew Point Humidity Pressure Visibility Wind Dir Wind Speed Gust Speed Precip Events Conditions
12:53 AM 41.0 °F 39.0 °F 28.9 °F 62% 30.24 in 10.0 mi SE 3.5 mph - N/A   Overcast
1:53 AM 39.9 °F - 28.0 °F 63% 30.23 in 10.0 mi Calm Calm - N/A   Clear
2:53 AM 42.1 °F 40.2 °F 28.9 °F 60% 30.23 in 10.0 mi Variable 3.5 mph - N/A   Clear
3:53 AM 41.0 °F - 28.9 °F 62% 30.25 in 10.0 mi Calm Calm - N/A   Clear
4:53 AM 42.1 °F - 28.9 °F 60% 30.27 in 10.0 mi Calm Calm - N/A   Overcast
5:53 AM 42.1 °F - 28.9 °F 60% 30.28 in 10.0 mi Calm Calm - N/A   Overcast
7:53 AM 37.9 °F - 30.0 °F 73% 30.30 in 10.0 mi Calm Calm - N/A   Scattered Clouds
9:53 AM 46.0 °F 44.8 °F 33.1 °F 61% 30.30 in 10.0 mi SSE 3.5 mph - N/A   Clear
10:53 AM 48.0 °F - 35.1 °F 61% 30.29 in 10.0 mi South 5.8 mph - N/A   Clear
11:53 AM 52.0 °F - 37.0 °F 57% 30.27 in 10.0 mi SSW 9.2 mph - N/A   Partly Cloudy
12:53 PM 53.1 °F - 37.0 °F 55% 30.25 in 10.0 mi South 11.5 mph 17.3 mph N/A   Overcast
2:53 PM 54.0 °F - 37.0 °F 53% 30.23 in 10.0 mi Variable 6.9 mph - N/A   Overcast
4:53 PM 53.1 °F - 37.9 °F 57% 30.23 in 10.0 mi South 4.6 mph - N/A   Mostly Cloudy
5:53 PM 51.1 °F - 37.9 °F 61% 30.22 in 10.0 mi Variable 3.5 mph - N/A   Mostly Cloudy
6:53 PM 52.0 °F - 37.9 °F 59% 30.22 in 10.0 mi Variable 4.6 mph - N/A   Mostly Cloudy
7:53 PM 51.1 °F - 37.9 °F 61% 30.23 in 10.0 mi South 4.6 mph - N/A   Scattered Clouds
8:53 PM 50.0 °F - 37.9 °F 63% 30.21 in 10.0 mi South 5.8 mph - N/A   Mostly Cloudy
9:53 PM 50.0 °F - 37.9 °F 63% 30.21 in 10.0 mi South 6.9 mph - N/A   Partly Cloudy
10:53 PM 50.0 °F - 37.9 °F 63% 30.20 in 10.0 mi South 6.9 mph - N/A   Mostly Cloudy
11:53 PM 50.0 °F - 37.9 °F 63% 30.18 in 10.0 mi Variable 3.5 mph - N/A   Partly Cloudy